SCP
0 0 0 0 0 0 0 0 0 0 0 0 0 0 0 0 0 0 0 0 0 0 0 0 0 0 0 0 0 0 0 0 0 0 0 0 0 0 0 0 0 0 0 0
0 0 0 0 0 0 0 0 0 0 0 0 0 0 0 -0 -0 0 0 0 0 0 0 0 0 0 0 0 0 0 0 0 0 0 0 0 0 0 0 0 0 0 0 0
0 0 0 0 0 0 0 0 0 0 0 0 0 0 0 -0 0 0 0 0 0 0 0 0 0 0 0 0 0 0 0 0 0 0 0 0 0 0 0 0 0 0 0 0
0 0 0 0 0 0 0 0 0 0 0 0 0 0 0 -0 0 0 0 0 0 0 0 0 0 0 0 0 0 0 0 0 0 0 0 0 0 0 0 0 0 0 0 0
0 0 0 0 0 0 0 0 0 0 0 0 0 0 0 0 0 0 0 0 0 0 0 0 0 0 0 0 0 0 0 0 0 0 0 0 0 -0 -0 0 0 0 0 0
0 0 0 0 0 0 0 0 0 0 0 0 0 0 0 0 0 0 0 0 0 0 0 0 -0 0 0 0 0 0 0 0 0 0 0 0 0 0 -0 0 0 0 0 0
0 0 0 0 0 0 0 0 0 0 0 0 0 0 0 0 0 0 0 0 0 0 -0 0 0 0 0 0 0 0 0 0 0 0 0 0 0 0 -0 -0 0 0 0 0
0 0 0 0 0 0 0 0 0 0 0 0 0 0 0 0 0 0 0 0 0 0 0 0 0 0 0 0 0 0 0 0 0 0 0 0 0 0 0 0 0 0 0 0
0 0 0 0 0 0 0 0 0 0 0 0 0 0 0 0 0 0 0 0 0 0 0 0 0 0 0 0 0 0 0 0 0 0 0 0 0 0 0 0 0 0 0 0
0 0 0 0 0 0 0 0 0 0 0 0 0 0 0 0 0 0 0 0 0 0 0 0 0 0 0 0 0 0 0 0 0 0 0 0 0 0 0 0 0 0 0 0
0 0 0 0 0 0 0 0 0 0 0 0 0 0 0 0 0 0 0 0 0 0 0 0 0 0 0 0 0 0 0 0 0 0 0 0 0 0 0 0 0 0 0 0
0 0 0 0 0 0 0 0 0 0 0 0 0 0 0 0 0 0 0 0 0 0 0 0 0 0 0 0 0 0 0 0 0 0 0 0 0 0 0 0 0 0 0 0
0 0 0 0 0 0 0 0 0 0 0 0 0 0 0 0 -0 0 0 0 0 0 0 0 0 0 0 -0 0 0 0 0 0 0 0 0 0 0 0 0 0 0 0 0
0 0 0 0 0 0 0 0 0 0 0 0 0 0 -0 -0 0 0 0 0 0 0 0 0 0 0 0 -0 0 0 0 0 0 0 0 0 0 0 0 0 0 0 0 0
0 0 0 0 0 0 0 0 0 0 0 0 0 0 0 0 0 0 0 0 0 0 0 0 0 0 -0 -0 0 0 0 -0 0 0 0 0 0 0 0 0 0 0 0 0
0 0 0 0 0 0 0 0 0 0 0 0 0 -0 0 0 0 0 0 0 0 0 0 0 0 0 -0 -0 0 0 0 -0 0 0 0 0 0 0 0 0 0 0 0 0
0 0 0 0 0 0 0 0 0 0 0 0 0 0 0 0 0 0 0 0 0 0 0 0 0 -0 -0 0 0 -0 -0 -0 -0 0 -0 0 0 0 0 0 0 0 0 0
0 0 0 0 0 0 0 0 0 0 0 0 0 0 0 0 0 0 0 0 0 0 0 0 0 0 0 0 0 0 0 0 0 0 0 0 0 0 0 0 0 0 0 0
0 0 0 0 0 0 0 0 0 0 0 0 0 0 0 0 0 0 0 0 0 0 0 0 0 0 0 0 0 0 0 0 0 0 0 0 0 0 0 0 0 0 0 0
0 0 0 0 0 0 0 0 0 0 0 0 0 0 -0 -0 0 0 0 0 0 0 0 0 0 0 0 0 0 -0 0 0 0 0 0 0 0 0 0 0 0 0 0 0
0 0 0 0 0 0 0 0 0 0 0 0 0 -0 -0 0 0 0 0 0 0 0 0 0 0 0 0 0 0 0 0 0 0 0 0 0 0 0 0 0 0 0 0 0
0 0 0 0 0 0 0 0 0 0 0 0 -0 -0 -0 0 0 0 0 0 0 0 0 0 0 0 0 0 0 0 0 0 0 0 0 0 0 0 0 0 0 0 0 0
0 0 0 0 0 0 0 0 0 0 0 -0 0 0 0 0 0 0 0 0 0 0 0 0 0 0 0 0 0 0 0 0 0 0 0 0 0 0 0 0 0 0 0 0
0 0 0 0 0 0 0 0 0 0 0 -0 -0 0 0 0 0 0 0 0 0 0 0 0 0 0 0 0 0 0 0 0 0 0 0 0 0 0 0 0 0 0 0 0
0 0 0 0 0 0 0 0 -0 0 0 0 -0 0 0 0 0 0 0 0 0 0 0 0 0 0 0 0 0 0 0 0 0 0 0 0 0 0 0 0 0 0 0 0
0 0 0 0 0 0 0 -0 0 -0 -0 -0 -0 0 0 0 0 0 0 0 0 0 0 0 0 0 0 0 0 0 0 0 0 0 0 0 0 0 0 0 0 0 0 0
Wind_Speed_500mb
5 10 3 4 5 4 5 8 12 16 22 20 15 36 44 57 51 56 55 61 66 64 63 51 38 33 36 37 47 63 63 67 71 55 59 78 106 113 107 103 105 98 92 92
11 3 7 3 6 7 8 11 15 15 6 22 36 49 42 34 24 42 51 54 62 70 54 26 19 23 26 24 30 36 42 44 52 69 66 62 87 91 112 104 107 107 101 101
1 2 6 2 8 8 8 10 8 11 11 12 23 19 6 6 32 43 48 55 37 20 20 20 26 33 38 42 46 48 48 48 44 47 59 69 61 80 104 109 113 114 111 109
7 4 2 5 6 5 8 2 8 12 11 3 11 13 12 13 17 16 39 33 29 35 19 22 29 33 36 44 48 59 64 70 76 74 64 65 70 83 86 117 114 112 118 109
6 7 1 5 7 1 14 11 15 19 8 8 11 2 16 11 17 13 18 39 27 25 26 31 49 60 73 77 75 68 73 79 87 90 81 78 75 77 87 84 124 121 118 119
12 4 10 9 7 10 9 9 19 4 7 2 9 9 16 10 12 11 12 13 32 36 49 59 62 67 81 76 98 99 97 104 91 86 86 83 91 77 76 74 107 119 128 123
8 8 6 6 5 6 10 11 9 12 7 12 16 6 23 21 25 12 14 22 30 50 74 64 82 84 96 109 106 100 89 98 101 112 107 106 103 103 86 94 84 123 131 125
3 12 14 9 7 4 2 10 9 12 7 16 16 14 13 22 29 34 17 34 37 71 58 73 79 92 113 104 87 81 86 89 86 89 104 117 134 125 99 86 90 141 134 131
3 10 3 8 6 11 3 5 8 2 5 6 8 14 30 26 14 15 29 37 55 62 75 76 82 97 89 86 91 86 85 90 94 96 94 95 99 95 92 86 110 81 134 134
3 7 5 7 6 11 10 3 6 5 9 12 12 15 27 31 18 17 23 32 61 70 79 82 84 96 104 95 86 88 85 86 87 89 93 96 100 99 85 87 97 115 96 137
4 5 9 5 12 14 3 4 6 4 7 8 10 20 14 15 16 34 24 62 88 77 85 85 88 92 89 81 83 82 80 83 82 78 87 94 93 88 86 88 100 117 112 127
5 6 8 20 5 5 11 14 13 8 13 10 7 38 30 37 26 19 74 79 86 94 84 80 80 94 81 80 81 79 81 79 76 78 75 83 89 95 90 91 106 122 122 127
10 3 6 18 10 7 7 8 11 5 2 35 8 25 9 29 57 74 64 81 87 69 71 83 97 88 78 78 80 79 78 73 74 61 80 91 90 81 83 102 109 119 121 129
15 6 13 14 10 4 11 12 9 9 5 35 37 65 71 56 52 55 78 79 62 74 77 90 86 81 77 74 73 72 67 58 42 35 53 84 81 80 107 106 102 111 112 110
11 12 9 18 19 21 35 42 39 38 47 21 59 48 59 55 52 64 65 66 67 80 86 84 79 79 78 73 69 61 52 44 17 21 42 60 81 97 97 98 106 102 98 110
8 7 3 9 15 20 34 42 37 42 37 37 56 61 51 63 51 58 71 57 68 79 85 78 76 74 72 68 62 53 45 27 22 49 59 77 87 92 87 98 94 85 89 91
14 7 5 11 7 16 22 22 14 7 12 14 15 25 14 38 38 58 59 55 68 80 78 74 72 70 68 60 51 44 31 10 28 55 76 83 81 83 87 84 83 86 61 97
13 11 6 7 10 4 13 11 12 25 21 26 22 26 21 34 61 73 24 59 68 75 76 73 71 65 58 50 39 31 17 3 23 50 67 75 77 85 86 85 80 84 90 103
6 9 1 3 6 20 15 6 7 8 16 13 11 15 36 43 42 20 52 65 66 63 66 65 59 53 47 39 28 17 8 7 21 39 53 63 69 76 81 81 79 78 89 92
5 7 8 5 4 12 11 6 8 9 11 10 6 13 15 38 22 16 72 70 68 57 60 60 52 47 37 30 21 17 19 20 33 38 42 52 64 73 74 76 77 77 82 85
9 5 23 8 8 19 26 24 7 10 10 13 11 23 20 11 15 58 57 57 58 55 61 55 52 42 35 27 24 29 24 32 33 41 48 54 62 64 66 65 64 82 87 84
19 19 10 9 5 21 29 14 16 13 7 12 25 36 47 49 54 48 48 48 54 57 60 56 55 49 40 38 37 44 40 36 42 43 52 55 55 56 61 70 77 78 81 77
8 17 15 25 18 9 46 19 36 18 26 35 56 57 43 42 39 41 44 43 46 49 54 54 55 54 49 48 45 49 42 39 45 53 55 56 59 66 71 76 75 75 70 69
10 21 7 6 18 38 48 58 59 55 63 72 60 40 29 30 27 30 32 36 41 41 44 49 60 63 59 58 53 51 50 54 60 66 68 69 71 71 68 68 69 71 68 63
12 28 13 12 23 36 52 54 58 45 22 16 16 22 17 16 18 21 24 28 32 31 30 37 47 56 60 61 69 72 70 71 75 75 76 78 77 74 71 64 55 47 40 33
18 14 15 16 29 13 11 16 16 21 18 7 7 9 6 10 10 14 15 20 23 23 22 24 30 37 42 44 49 49 47 46 53 57 56 54 52 48 45 45 45 39 33 31
Wind_Direction_500mb
353 57 103 135 102 167 221 242 259 276 285 321 278 288 292 291 285 282 282 287 293 290 297 291 287 294 284 280 283 274 275 274 265 269 261 250 223 224 220 217 221 221 217 208
23 131 180 190 212 241 257 277 273 282 22 338 296 294 284 277 270 273 276 287 299 304 307 286 283 296 287 280 277 285 287 288 280 266 266 263 252 223 218 215 220 220 217 209
192 263 185 271 314 306 281 244 283 265 349 280 324 298 333 274 305 294 293 291 311 329 303 278 284 289 285 283 280 279 283 286 281 275 275 267 267 251 212 217 210 214 216 213
253 219 253 304 285 257 281 326 317 325 35 280 77 289 276 281 278 270 288 311 328 333 345 312 309 304 304 308 300 291 287 284 281 281 280 274 263 257 231 217 213 211 214 215
241 185 185 277 230 145 241 347 304 289 198 64 324 39 270 272 279 284 294 310 342 356 345 332 321 311 304 303 304 303 290 283 279 279 275 270 266 259 256 230 213 208 210 211
236 184 176 206 312 239 294 326 309 327 120 231 239 134 277 282 219 284 297 10 339 341 333 324 321 309 308 294 300 296 288 275 272 270 269 261 256 262 260 254 196 200 206 208
292 207 171 124 312 15 38 42 346 344 353 223 184 24 243 276 281 243 256 316 334 332 328 314 314 304 308 305 307 302 289 280 271 263 258 259 258 261 260 246 231 207 204 206
153 325 167 167 168 230 318 132 147 259 276 282 294 228 248 234 277 296 279 323 326 320 311 312 310 307 312 308 299 289 283 278 275 267 261 256 253 258 254 242 231 207 211 207
125 271 102 143 122 129 154 186 167 175 241 347 250 284 294 274 274 286 316 317 318 308 315 304 302 315 306 301 297 291 284 275 270 265 258 254 248 246 243 229 228 218 210 209
217 309 273 116 77 252 180 155 62 7 292 296 269 270 253 292 283 284 298 302 311 306 310 301 308 315 313 303 298 296 287 278 272 266 260 250 246 239 234 228 223 215 205 212
136 112 291 53 190 185 104 250 193 177 175 226 291 283 222 252 269 295 288 309 310 305 301 308 307 313 306 300 300 297 288 287 282 268 257 244 236 232 223 223 219 216 216 207
206 151 264 233 240 195 191 204 167 148 261 243 234 274 289 286 277 306 308 303 304 303 300 309 307 313 309 306 308 303 300 299 293 279 251 237 234 230 220 220 215 216 218 219
179 244 347 339 3 339 221 203 212 241 40 252 254 272 205 299 308 302 303 302 302 304 312 315 315 316 313 312 314 311 311 307 302 270 247 235 224 218 206 206 208 213 212 214
149 196 184 208 197 104 274 249 232 193 211 280 245 275 287 296 301 304 304 306 314 317 316 316 316 318 316 316 320 319 319 320 297 274 225 206 206 196 194 200 209 207 209 212
152 214 210 261 272 276 268 265 256 240 247 242 276 276 283 292 299 298 302 321 322 317 322 321 321 322 326 330 328 327 332 332 259 201 178 181 180 185 191 199 199 200 204 206
182 262 100 294 272 264 271 264 256 254 255 253 258 271 276 282 300 309 316 324 319 326 324 326 328 332 334 334 331 332 336 332 167 177 176 173 177 185 192 190 192 201 196 205
170 154 66 269 310 336 288 252 207 208 197 199 237 280 312 306 313 309 320 329 327 326 328 332 337 339 339 336 333 333 334 312 165 162 171 173 176 180 184 185 185 184 200 197
151 125 119 259 14 284 241 282 236 239 242 228 277 280 280 300 305 305 324 335 331 334 338 344 345 344 343 344 345 341 333 265 168 159 164 172 174 178 175 172 176 179 186 186
154 124 229 179 205 297 297 11 135 72 276 235 237 280 297 312 312 304 346 341 339 351 355 352 349 349 348 351 359 7 36 113 153 166 158 167 170 166 168 170 172 175 175 171
101 122 131 79 190 245 236 162 96 146 300 194 196 283 297 329 341 319 337 344 352 1 4 2 359 1 1 10 19 56 89 117 123 142 155 154 159 156 156 161 162 164 168 162
155 190 209 191 247 280 246 232 281 80 246 170 262 291 310 311 282 314 341 351 360 7 8 14 17 16 20 30 55 76 89 97 115 131 137 144 148 150 152 153 154 155 155 153
168 162 192 155 199 270 177 109 176 211 167 242 302 316 321 318 325 336 350 3 8 12 20 28 32 35 44 56 73 87 92 105 117 127 131 136 140 142 145 146 148 147 144 142
215 191 180 190 212 235 186 209 221 256 280 280 298 308 310 314 326 337 352 10 19 23 30 37 45 49 53 58 72 89 97 108 114 118 120 124 129 135 137 136 136 134 137 141
237 187 217 137 242 239 244 245 254 261 271 285 288 294 297 305 324 341 355 18 27 35 44 54 60 58 60 62 68 78 92 101 105 107 111 117 120 122 124 128 131 130 134 139
196 156 182 265 275 277 270 262 274 274 291 301 274 261 282 308 327 348 1 27 37 46 64 73 70 69 68 71 75 77 82 89 94 99 104 106 110 114 117 120 122 124 128 131
190 175 184 221 206 200 226 247 256 261 252 264 264 241 305 333 334 357 13 35 49 56 78 95 90 81 81 80 84 86 86 87 95 102 106 109 112 115 120 125 131 135 139 139
Wind_Speed_850mb
5 10 3 4 5 4 5 8 12 16 22 20 15 36 44 57 51 56 55 61 66 64 63 51 38 33 36 37 47 63 63 67 71 55 59 78 106 113 107 103 105 98 92 92
11 3 7 3 6 7 8 11 15 15 6 22 36 49 42 34 24 42 51 54 62 70 54 26 19 23 26 24 30 36 42 44 52 69 66 62 87 91 112 104 107 107 101 101
1 2 6 2 8 8 8 10 8 11 11 12 23 19 6 6 32 43 48 55 37 20 20 20 26 33 38 42 46 48 48 48 44 47 59 69 61 80 104 109 113 114 111 109
7 4 2 5 6 5 8 2 8 12 11 3 11 13 12 13 17 16 39 33 29 35 19 22 29 33 36 44 48 59 64 70 76 74 64 65 70 83 86 117 114 112 118 109
6 7 1 5 7 1 14 11 15 19 8 8 11 2 16 11 17 13 18 39 27 25 26 31 49 60 73 77 75 68 73 79 87 90 81 78 75 77 87 84 124 121 118 119
12 4 10 9 7 10 9 9 19 4 7 2 9 9 16 10 12 11 12 13 32 36 49 59 62 67 81 76 98 99 97 104 91 86 86 83 91 77 76 74 107 119 128 123
8 8 6 6 5 6 10 11 9 12 7 12 16 6 23 21 25 12 14 22 30 50 74 64 82 84 96 109 106 100 89 98 101 112 107 106 103 103 86 94 84 123 131 125
3 12 14 9 7 4 2 10 9 12 7 16 16 14 13 22 29 34 17 34 37 71 58 73 79 92 113 104 87 81 86 89 86 89 104 117 134 125 99 86 90 141 134 131
3 10 3 8 6 11 3 5 8 2 5 6 8 14 30 26 14 15 29 37 55 62 75 76 82 97 89 86 91 86 85 90 94 96 94 95 99 95 92 86 110 81 134 134
3 7 5 7 6 11 10 3 6 5 9 12 12 15 27 31 18 17 23 32 61 70 79 82 84 96 104 95 86 88 85 86 87 89 93 96 100 99 85 87 97 115 96 137
4 5 9 5 12 14 3 4 6 4 7 8 10 20 14 15 16 34 24 62 88 77 85 85 88 92 89 81 83 82 80 83 82 78 87 94 93 88 86 88 100 117 112 127
5 6 8 20 5 5 11 14 13 8 13 10 7 38 30 37 26 19 74 79 86 94 84 80 80 94 81 80 81 79 81 79 76 78 75 83 89 95 90 91 106 122 122 127
10 3 6 18 10 7 7 8 11 5 2 35 8 25 9 29 57 74 64 81 87 69 71 83 97 88 78 78 80 79 78 73 74 61 80 91 90 81 83 102 109 119 121 129
15 6 13 14 10 4 11 12 9 9 5 35 37 65 71 56 52 55 78 79 62 74 77 90 86 81 77 74 73 72 67 58 42 35 53 84 81 80 107 106 102 111 112 110
11 12 9 18 19 21 35 42 39 38 47 21 59 48 59 55 52 64 65 66 67 80 86 84 79 79 78 73 69 61 52 44 17 21 42 60 81 97 97 98 106 102 98 110
8 7 3 9 15 20 34 42 37 42 37 37 56 61 51 63 51 58 71 57 68 79 85 78 76 74 72 68 62 53 45 27 22 49 59 77 87 92 87 98 94 85 89 91
14 7 5 11 7 16 22 22 14 7 12 14 15 25 14 38 38 58 59 55 68 80 78 74 72 70 68 60 51 44 31 10 28 55 76 83 81 83 87 84 83 86 61 97
13 11 6 7 10 4 13 11 12 25 21 26 22 26 21 34 61 73 24 59 68 75 76 73 71 65 58 50 39 31 17 3 23 50 67 75 77 85 86 85 80 84 90 103
6 9 1 3 6 20 15 6 7 8 16 13 11 15 36 43 42 20 52 65 66 63 66 65 59 53 47 39 28 17 8 7 21 39 53 63 69 76 81 81 79 78 89 92
5 7 8 5 4 12 11 6 8 9 11 10 6 13 15 38 22 16 72 70 68 57 60 60 52 47 37 30 21 17 19 20 33 38 42 52 64 73 74 76 77 77 82 85
9 5 23 8 8 19 26 24 7 10 10 13 11 23 20 11 15 58 57 57 58 55 61 55 52 42 35 27 24 29 24 32 33 41 48 54 62 64 66 65 64 82 87 84
19 19 10 9 5 21 29 14 16 13 7 12 25 36 47 49 54 48 48 48 54 57 60 56 55 49 40 38 37 44 40 36 42 43 52 55 55 56 61 70 77 78 81 77
8 17 15 25 18 9 46 19 36 18 26 35 56 57 43 42 39 41 44 43 46 49 54 54 55 54 49 48 45 49 42 39 45 53 55 56 59 66 71 76 75 75 70 69
10 21 7 6 18 38 48 58 59 55 63 72 60 40 29 30 27 30 32 36 41 41 44 49 60 63 59 58 53 51 50 54 60 66 68 69 71 71 68 68 69 71 68 63
12 28 13 12 23 36 52 54 58 45 22 16 16 22 17 16 18 21 24 28 32 31 30 37 47 56 60 61 69 72 70 71 75 75 76 78 77 74 71 64 55 47 40 33
18 14 15 16 29 13 11 16 16 21 18 7 7 9 6 10 10 14 15 20 23 23 22 24 30 37 42 44 49 49 47 46 53 57 56 54 52 48 45 45 45 39 33 31
Wind_Direction_850mb
353 57 103 135 102 167 221 242 259 276 285 321 278 288 292 291 285 282 282 287 293 290 297 291 287 294 284 280 283 274 275 274 265 269 261 250 223 224 220 217 221 221 217 208
23 131 180 190 212 241 257 277 273 282 22 338 296 294 284 277 270 273 276 287 299 304 307 286 283 296 287 280 277 285 287 288 280 266 266 263 252 223 218 215 220 220 217 209
192 263 185 271 314 306 281 244 283 265 349 280 324 298 333 274 305 294 293 291 311 329 303 278 284 289 285 283 280 279 283 286 281 275 275 267 267 251 212 217 210 214 216 213
253 219 253 304 285 257 281 326 317 325 35 280 77 289 276 281 278 270 288 311 328 333 345 312 309 304 304 308 300 291 287 284 281 281 280 274 263 257 231 217 213 211 214 215
241 185 185 277 230 145 241 347 304 289 198 64 324 39 270 272 279 284 294 310 342 356 345 332 321 311 304 303 304 303 290 283 279 279 275 270 266 259 256 230 213 208 210 211
236 184 176 206 312 239 294 326 309 327 120 231 239 134 277 282 219 284 297 10 339 341 333 324 321 309 308 294 300 296 288 275 272 270 269 261 256 262 260 254 196 200 206 208
292 207 171 124 312 15 38 42 346 344 353 223 184 24 243 276 281 243 256 316 334 332 328 314 314 304 308 305 307 302 289 280 271 263 258 259 258 261 260 246 231 207 204 206
153 325 167 167 168 230 318 132 147 259 276 282 294 228 248 234 277 296 279 323 326 320 311 312 310 307 312 308 299 289 283 278 275 267 261 256 253 258 254 242 231 207 211 207
125 271 102 143 122 129 154 186 167 175 241 347 250 284 294 274 274 286 316 317 318 308 315 304 302 315 306 301 297 291 284 275 270 265 258 254 248 246 243 229 228 218 210 209
217 309 273 116 77 252 180 155 62 7 292 296 269 270 253 292 283 284 298 302 311 306 310 301 308 315 313 303 298 296 287 278 272 266 260 250 246 239 234 228 223 215 205 212
136 112 291 53 190 185 104 250 193 177 175 226 291 283 222 252 269 295 288 309 310 305 301 308 307 313 306 300 300 297 288 287 282 268 257 244 236 232 223 223 219 216 216 207
206 151 264 233 240 195 191 204 167 148 261 243 234 274 289 286 277 306 308 303 304 303 300 309 307 313 309 306 308 303 300 299 293 279 251 237 234 230 220 220 215 216 218 219
179 244 347 339 3 339 221 203 212 241 40 252 254 272 205 299 308 302 303 302 302 304 312 315 315 316 313 312 314 311 311 307 302 270 247 235 224 218 206 206 208 213 212 214
149 196 184 208 197 104 274 249 232 193 211 280 245 275 287 296 301 304 304 306 314 317 316 316 316 318 316 316 320 319 319 320 297 274 225 206 206 196 194 200 209 207 209 212
152 214 210 261 272 276 268 265 256 240 247 242 276 276 283 292 299 298 302 321 322 317 322 321 321 322 326 330 328 327 332 332 259 201 178 181 180 185 191 199 199 200 204 206
182 262 100 294 272 264 271 264 256 254 255 253 258 271 276 282 300 309 316 324 319 326 324 326 328 332 334 334 331 332 336 332 167 177 176 173 177 185 192 190 192 201 196 205
170 154 66 269 310 336 288 252 207 208 197 199 237 280 312 306 313 309 320 329 327 326 328 332 337 339 339 336 333 333 334 312 165 162 171 173 176 180 184 185 185 184 200 197
151 125 119 259 14 284 241 282 236 239 242 228 277 280 280 300 305 305 324 335 331 334 338 344 345 344 343 344 345 341 333 265 168 159 164 172 174 178 175 172 176 179 186 186
154 124 229 179 205 297 297 11 135 72 276 235 237 280 297 312 312 304 346 341 339 351 355 352 349 349 348 351 359 7 36 113 153 166 158 167 170 166 168 170 172 175 175 171
101 122 131 79 190 245 236 162 96 146 300 194 196 283 297 329 341 319 337 344 352 1 4 2 359 1 1 10 19 56 89 117 123 142 155 154 159 156 156 161 162 164 168 162
155 190 209 191 247 280 246 232 281 80 246 170 262 291 310 311 282 314 341 351 360 7 8 14 17 16 20 30 55 76 89 97 115 131 137 144 148 150 152 153 154 155 155 153
168 162 192 155 199 270 177 109 176 211 167 242 302 316 321 318 325 336 350 3 8 12 20 28 32 35 44 56 73 87 92 105 117 127 131 136 140 142 145 146 148 147 144 142
215 191 180 190 212 235 186 209 221 256 280 280 298 308 310 314 326 337 352 10 19 23 30 37 45 49 53 58 72 89 97 108 114 118 120 124 129 135 137 136 136 134 137 141
237 187 217 137 242 239 244 245 254 261 271 285 288 294 297 305 324 341 355 18 27 35 44 54 60 58 60 62 68 78 92 101 105 107 111 117 120 122 124 128 131 130 134 139
196 156 182 265 275 277 270 262 274 274 291 301 274 261 282 308 327 348 1 27 37 46 64 73 70 69 68 71 75 77 82 89 94 99 104 106 110 114 117 120 122 124 128 131
190 175 184 221 206 200 226 247 256 261 252 264 264 241 305 333 334 357 13 35 49 56 78 95 90 81 81 80 84 86 86 87 95 102 106 109 112 115 120 125 131 135 139 139